GFSGL_prec_cthk_021.txt.gz
RH
41 39 44 52 51 54 53 46 50 53 59 59 57 53 53 50 50 48 39 33 31 31 33 35 41 44 44 48 51 48 48 46 44 38 43 39 35 37 39 41 40 37 34
47 43 47 58 59 51 67 65 53 52 59 62 61 56 53 51 53 55 56 50 37 36 36 42 46 48 47 55 56 55 50 48 49 46 41 44 46 43 46 44 45 43 40
50 56 62 61 61 58 53 63 68 65 71 70 63 56 55 56 60 63 61 58 53 44 44 45 47 50 49 51 55 51 47 47 50 46 43 45 50 47 45 42 45 47 47
50 53 55 59 59 63 57 55 66 74 78 77 67 67 57 60 63 70 71 60 58 57 50 52 55 54 49 52 51 48 46 47 47 50 46 48 53 54 46 47 48 53 52
48 52 52 56 61 66 69 62 67 77 84 72 63 64 58 57 64 69 65 64 67 64 59 66 67 65 52 42 45 44 40 43 46 50 58 56 56 55 54 53 53 49 44
45 48 48 48 54 64 67 68 73 74 83 71 66 63 58 64 67 71 71 74 73 73 70 74 75 64 56 50 51 46 42 43 48 52 54 59 58 59 56 57 53 40 37
48 44 39 41 48 56 63 64 63 69 78 71 70 65 60 67 69 73 75 76 76 80 82 84 80 67 59 49 47 42 42 46 50 54 57 57 54 54 53 51 45 37 39
37 38 39 47 53 58 58 54 60 67 74 71 68 62 64 64 66 70 78 83 85 88 90 83 75 71 63 49 43 40 44 48 51 49 52 49 50 53 51 45 38 43 44
37 40 44 50 55 58 56 50 55 63 78 74 69 66 64 65 67 72 82 91 95 95 95 89 79 73 62 49 44 43 44 46 51 52 52 50 46 44 46 47 46 49 48
39 40 49 57 60 63 58 57 59 71 81 79 74 65 63 68 68 68 81 87 93 97 98 89 78 67 52 48 46 43 45 47 51 52 51 47 42 44 49 53 52 53 54
43 51 55 50 59 62 61 65 66 73 77 71 73 67 69 69 73 68 77 88 92 95 98 82 65 53 51 48 43 43 44 47 48 43 41 46 53 55 55 55 54 56 50
54 54 52 52 57 61 62 67 67 66 71 69 73 70 74 76 68 72 78 88 93 87 77 63 55 54 50 45 46 45 48 52 46 39 44 48 53 56 52 44 41 39 41
61 56 56 59 62 60 64 66 69 70 73 77 77 78 84 65 65 75 80 80 80 74 70 53 54 51 45 46 47 51 54 54 43 43 45 46 44 40 38 38 36 29 52
59 64 65 61 63 65 57 61 67 67 70 71 73 72 67 70 75 73 71 73 68 64 58 57 52 47 47 51 53 56 55 48 47 50 49 46 41 39 38 38 28 37 60
63 68 69 68 65 57 56 61 62 67 71 69 68 69 73 72 67 63 64 62 61 61 59 52 48 50 53 54 55 54 50 47 49 52 53 48 42 38 33 24 27 49 65
63 61 65 60 53 54 57 58 62 61 62 67 75 79 74 66 61 62 60 61 63 60 55 53 55 54 56 57 55 53 50 50 49 51 53 49 40 28 22 20 37 55 61
50 42 42 46 48 48 51 52 56 61 64 69 71 67 65 66 63 61 66 67 65 56 56 57 58 59 59 59 57 57 55 54 53 51 48 40 33 25 22 26 40 50 54
44 43 46 45 44 49 53 56 58 61 60 62 67 66 65 69 70 69 64 57 55 54 55 59 60 60 62 59 60 63 63 57 51 37 33 28 27 26 24 27 39 50 49
41 39 42 46 51 55 58 61 62 64 64 66 69 67 65 65 65 62 60 58 58 57 51 52 53 54 53 54 54 58 52 43 40 35 29 26 24 24 22 28 38 50 51
42 51 60 62 64 59 62 62 63 63 66 64 61 62 57 57 56 54 53 50 46 47 46 48 49 47 46 44 42 37 29 27 25 24 23 22 22 21 19 22 33 45 50
50 58 62 69 69 68 64 64 60 55 58 61 62 60 59 56 51 47 46 46 45 43 40 40 40 39 37 32 27 24 23 21 18 17 17 18 18 18 17 17 23 34 38
66 71 74 75 72 69 69 60 58 62 67 70 67 64 60 56 56 55 48 43 40 37 36 34 33 31 24 21 19 20 19 17 15 14 14 15 16 15 16 16 15 17 29
59 61 64 67 69 67 58 57 62 72 75 77 77 70 63 58 54 50 48 45 41 38 34 30 29 24 19 16 15 15 16 16 16 16 16 15 18 14 15 15 15 15 16
66 66 63 64 59 62 56 62 73 79 80 72 74 64 53 50 50 49 47 45 42 38 31 27 24 22 19 16 15 16 17 18 18 18 18 17 20 18 17 17 16 16 15
56 54 54 54 51 57 60 61 66 70 71 64 53 48 47 44 44 43 41 37 34 31 27 24 20 19 18 15 15 17 18 17 19 20 20 20 19 19 20 19 19 18 17
50 50 53 55 57 55 53 54 54 54 53 48 45 41 40 39 37 37 38 37 34 31 29 24 21 19 17 16 17 17 17 17 18 18 19 22 23 21 20 19 19 17 17

GFSGL_prec_cthk_024.txt.gz
RH
39 40 40 39 43 46 59 56 50 47 55 57 60 64 60 60 57 51 52 56 61 56 51 48 43 47 55 60 60 62 64 62 51 47 45 44 42 41 41 38 39 38 39
42 44 44 40 44 42 49 57 55 62 57 58 67 74 69 73 61 60 60 61 66 61 61 62 54 52 54 56 56 58 60 62 60 51 49 50 44 44 42 44 46 47 43
50 52 51 48 47 51 50 50 51 56 55 57 69 70 67 63 62 61 59 63 70 67 64 64 70 63 64 63 61 60 60 56 54 52 45 43 42 47 49 51 51 47 47
47 49 51 58 59 58 48 50 51 50 53 58 65 65 65 64 62 61 61 67 68 75 68 72 72 73 71 64 65 58 53 53 57 56 53 50 53 53 56 54 60 56 55
45 48 51 54 56 58 55 52 55 55 53 61 67 72 71 64 62 63 64 62 70 72 75 77 82 78 72 71 72 58 53 54 51 50 47 49 56 65 66 61 57 56 55
41 43 46 49 47 49 51 54 58 60 56 60 61 67 74 68 63 65 56 64 71 80 81 90 87 84 83 79 73 62 55 50 44 43 43 50 54 56 55 57 53 51 50
38 42 45 44 41 43 46 52 55 57 58 55 59 68 75 70 67 67 55 56 67 80 83 90 90 92 96 87 77 70 61 48 43 42 45 48 50 53 50 49 49 50 47
39 39 41 39 37 42 47 53 56 59 61 54 59 67 75 76 74 67 60 65 63 76 82 84 89 94 98 93 85 78 56 49 47 46 48 49 50 50 51 48 42 39 44
40 39 39 39 43 46 52 59 58 61 62 55 63 74 76 76 74 66 62 63 66 68 76 79 89 91 98 93 85 63 50 50 45 43 43 44 44 41 39 43 46 52 53
35 39 40 41 46 52 60 62 58 59 58 61 65 73 75 72 74 64 63 59 66 67 70 79 89 91 94 88 73 59 54 48 46 45 45 47 43 41 43 47 51 53 58
42 40 42 45 46 52 55 59 61 62 64 65 69 71 71 77 72 67 67 76 77 75 75 85 87 87 83 73 66 54 51 44 43 45 49 52 45 46 51 51 49 49 48
39 41 44 48 55 60 59 64 64 65 65 65 65 70 73 75 72 68 67 79 81 78 78 77 87 81 73 66 60 51 46 45 49 53 53 48 47 45 43 44 40 38 40
41 44 47 51 56 64 68 71 69 71 70 63 64 70 73 71 73 69 78 71 73 78 74 74 69 66 62 60 52 46 47 51 56 54 49 46 45 46 46 44 40 35 32
49 54 59 66 58 72 71 70 74 75 69 67 71 78 76 83 85 79 82 76 80 65 61 64 62 63 61 56 52 51 53 57 52 47 48 47 46 45 46 40 32 28 32
56 61 64 65 69 73 72 70 69 65 64 69 70 69 70 74 71 73 76 72 65 66 64 62 63 65 63 60 60 59 58 54 51 51 49 48 45 42 43 37 33 31 38
63 66 63 70 68 65 57 52 54 57 60 60 60 63 66 73 73 74 68 67 66 66 67 71 73 70 66 66 64 61 59 55 58 55 52 50 46 41 36 33 32 33 41
54 50 53 56 55 48 46 47 50 50 53 56 58 59 62 65 69 68 66 67 68 71 68 63 62 66 68 65 64 62 58 59 60 59 52 46 37 32 29 30 33 36 42
49 48 44 40 39 39 39 45 50 53 56 58 61 64 67 68 69 68 65 63 62 59 59 60 59 59 58 57 57 56 55 54 56 48 40 36 33 31 28 27 31 38 44
43 39 37 41 42 41 42 49 54 56 60 62 63 62 62 60 59 56 55 55 55 52 48 48 50 51 51 51 50 49 47 43 37 32 30 27 27 26 25 24 26 34 43
42 35 41 47 47 45 49 52 56 62 66 64 62 59 56 55 57 57 55 50 43 42 44 45 46 45 45 42 40 37 34 35 32 29 26 23 22 22 21 22 20 26 37
47 40 42 50 53 57 60 64 66 69 67 63 63 61 57 62 64 60 53 53 49 42 40 41 41 40 36 32 28 29 30 30 29 25 22 20 19 20 19 19 19 19 28
44 47 53 58 59 60 63 65 67 69 68 61 62 60 63 70 71 63 56 48 45 42 41 40 41 38 31 27 25 27 25 24 23 19 19 19 22 22 21 20 19 18 20
58 60 63 64 63 62 60 65 68 63 62 61 70 76 73 71 70 58 48 45 44 43 40 36 35 30 24 22 23 23 21 22 19 20 21 21 25 22 22 21 20 20 19
60 59 60 60 60 60 61 60 59 60 61 61 68 72 69 61 54 52 45 44 43 39 33 28 25 20 19 17 19 19 19 18 18 22 21 22 26 25 25 23 21 21 21
57 58 59 61 57 53 55 55 58 64 68 61 55 54 55 51 50 49 46 41 38 37 34 29 24 21 16 15 18 18 17 16 17 18 21 24 24 24 24 22 22 21 21
53 55 54 54 54 54 60 61 62 63 59 51 52 47 44 45 46 47 45 42 39 37 33 29 25 20 16 15 15 15 15 15 16 17 17 23 26 25 23 23 23 20 20

GFSGL_prec_cthk_030.txt.gz
RH
30 23 24 30 30 30 36 39 43 47 52 48 51 51 48 52 54 59 58 57 66 65 60 58 62 61 60 64 68 68 69 69 63 57 59 60 63 60 54 47 46 42 38
31 25 25 26 31 36 38 40 42 45 46 50 51 51 49 48 48 56 57 60 62 61 53 55 61 64 68 68 71 71 70 74 72 68 63 64 57 56 52 42 44 40 42
34 28 26 26 32 36 37 36 38 42 44 47 49 52 50 46 47 51 52 57 61 61 59 56 57 63 68 70 73 76 77 81 80 74 70 66 58 54 46 50 47 46 49
34 30 27 29 33 36 37 37 37 40 42 43 45 50 50 46 45 50 52 53 57 61 60 59 60 60 59 62 70 79 79 83 87 85 82 78 74 61 57 50 46 43 42
36 33 28 28 33 38 40 40 43 46 47 46 46 52 53 50 46 51 55 51 56 62 64 64 62 64 61 63 65 73 74 74 81 86 84 80 75 63 44 45 47 49 42
37 35 33 33 34 39 42 43 47 52 52 53 53 56 56 53 50 53 55 56 57 64 65 67 64 69 67 60 63 65 66 67 71 82 88 88 80 71 58 56 52 44 41
36 36 36 36 35 39 43 51 52 53 54 54 57 59 61 59 56 55 59 61 61 67 70 72 65 67 62 63 61 64 62 65 70 77 81 89 90 83 74 65 53 40 37
38 38 37 37 39 42 48 52 53 52 50 51 55 59 61 63 62 65 66 65 66 72 76 75 70 67 63 62 59 68 73 71 67 61 67 77 80 75 65 55 48 40 37
41 40 39 41 44 47 52 53 53 50 52 54 55 57 62 66 68 70 68 69 72 75 78 79 74 74 65 62 65 73 76 70 66 60 59 66 71 69 57 54 48 47 46
43 43 45 46 49 53 55 56 53 54 56 58 58 61 65 69 70 71 72 72 75 75 77 79 81 80 69 70 78 76 73 64 60 61 59 59 57 51 52 56 54 54 55
47 47 47 50 54 57 59 53 53 63 65 62 61 64 66 69 75 77 75 75 75 73 75 79 78 74 73 79 81 84 75 70 67 59 58 53 50 56 61 57 58 54 55
50 52 52 54 58 59 52 49 53 59 61 64 65 67 70 74 76 78 72 67 70 72 74 77 79 74 81 82 82 73 67 64 60 60 57 53 59 62 58 56 55 55 51
55 57 56 58 54 50 54 59 64 61 58 61 65 68 73 72 75 68 64 62 67 71 71 74 72 71 82 78 72 68 69 63 60 57 58 62 63 59 53 51 52 51 47
58 58 54 48 50 54 56 59 61 61 63 66 71 72 71 61 59 62 61 59 56 59 64 67 70 80 75 74 72 69 63 60 58 62 63 60 59 58 56 58 52 45 38
52 49 52 53 53 55 58 62 64 65 70 71 72 62 54 49 51 51 51 51 55 57 57 63 68 69 67 65 65 62 56 57 56 59 63 61 60 57 58 53 42 36 35
50 52 54 55 57 59 64 64 66 67 67 66 66 53 48 48 44 45 49 49 48 51 59 65 68 66 63 64 65 61 57 57 58 59 58 54 52 51 44 37 33 33 29
48 53 59 62 61 59 63 68 66 64 67 62 47 41 39 42 41 42 46 50 56 58 59 60 58 58 63 61 53 51 56 59 58 55 49 46 45 40 36 32 31 29 28
61 61 63 62 65 66 60 64 60 58 45 37 37 36 35 38 41 44 47 48 50 50 48 51 54 55 53 50 49 48 48 47 47 44 41 41 35 34 32 30 30 26 25
62 67 67 61 60 64 61 55 43 37 33 33 34 36 39 40 44 45 43 43 44 48 54 56 51 48 46 40 38 36 36 35 34 32 30 30 33 30 29 29 25 26 25
60 66 64 62 59 52 46 44 44 47 38 38 38 40 44 43 41 41 40 40 45 48 49 46 42 35 32 32 32 32 31 28 28 29 30 31 27 25 25 27 28 28 27
64 66 62 57 47 40 44 43 43 46 48 47 48 45 44 39 38 41 48 52 52 52 48 41 33 31 31 31 30 24 24 24 27 28 26 25 24 24 29 27 31 30 29
72 50 51 56 61 38 41 42 49 51 53 56 53 50 50 45 46 45 49 51 50 46 40 35 33 31 30 28 24 19 21 22 22 23 22 21 23 27 28 28 31 29 27
74 70 53 51 53 55 61 66 76 62 61 72 47 54 50 49 50 51 47 48 45 43 38 35 33 31 27 24 18 17 18 23 22 20 17 20 24 27 27 27 28 27 27
66 54 65 58 54 67 70 78 64 65 62 55 53 53 47 51 52 51 44 42 40 40 37 35 31 29 26 22 18 16 18 17 17 14 15 17 23 27 25 26 27 26 27
52 52 61 59 53 66 69 70 67 52 52 53 52 59 54 61 51 49 45 35 35 38 37 34 31 29 24 20 17 17 17 16 15 14 13 15 20 25 25 24 24 26 27
57 62 67 60 50 62 62 49 50 51 49 59 52 60 55 56 46 49 38 36 36 38 37 36 34 31 27 22 20 16 15 14 14 13 13 13 19 24 23 22 24 26 26

GFSGL_prec_cthk_033.txt.gz
RH
33 29 23 22 27 27 28 33 40 47 44 47 48 48 52 54 50 46 50 51 54 53 55 58 57 54 57 62 65 62 66 68 68 69 67 72 71 67 63 56 52 45 41
32 30 24 22 25 25 31 37 38 38 40 46 50 51 53 54 50 46 49 50 51 55 54 54 59 58 56 55 59 61 65 66 68 72 72 67 67 70 61 56 51 42 41
33 31 26 23 24 26 32 39 39 37 37 42 47 48 50 51 51 47 45 50 49 53 53 53 57 58 56 55 60 60 64 66 68 69 70 72 70 70 73 68 61 53 49
33 30 28 23 23 26 33 35 36 38 40 41 42 44 46 47 51 50 49 50 51 53 56 54 56 62 60 59 62 61 62 62 64 62 63 67 69 75 75 72 71 60 47
35 31 27 25 23 26 30 35 37 36 38 41 43 47 51 53 55 56 54 54 56 57 59 62 59 65 64 64 64 60 62 62 63 60 59 63 66 70 73 71 68 68 57
35 33 31 26 25 24 28 35 38 40 42 44 49 54 56 59 62 64 61 57 60 61 62 64 66 69 71 69 67 65 62 64 65 64 68 66 69 73 74 75 77 74 67
34 36 35 31 27 26 26 31 38 41 47 50 55 61 66 67 68 68 65 59 61 64 68 65 70 76 76 75 72 74 71 69 69 68 67 66 58 58 68 69 67 68 66
34 35 35 35 32 31 33 33 39 44 50 59 65 67 66 65 64 66 66 62 64 65 71 71 74 79 81 83 80 82 79 74 76 77 73 64 58 56 58 58 56 51 46
31 35 35 36 37 36 39 43 48 54 62 67 68 63 62 61 61 65 63 63 66 70 71 73 77 83 85 86 84 82 79 82 85 83 74 66 64 61 60 59 52 54 50
31 34 36 38 39 39 44 49 56 62 66 69 64 56 62 61 63 61 63 66 71 74 77 71 71 76 81 87 87 82 84 85 86 86 77 68 61 59 57 54 57 57 55
36 35 41 43 44 45 47 53 61 66 70 64 55 58 58 55 63 67 69 72 72 74 68 67 67 74 78 83 84 80 79 89 87 75 71 67 65 59 59 61 61 59 58
35 46 43 47 48 50 54 61 68 68 64 57 65 69 68 64 69 72 71 68 65 62 65 64 65 69 74 78 75 74 70 72 75 73 69 63 58 58 62 62 63 61 59
43 51 48 51 55 60 63 66 71 64 59 64 70 75 72 71 72 73 67 64 63 61 61 62 63 61 61 64 64 70 76 70 69 62 58 55 56 59 62 63 61 57 60
52 57 54 54 64 69 72 69 57 57 62 69 68 69 70 74 72 72 70 63 56 52 53 56 59 61 63 66 66 67 65 63 59 53 51 51 53 54 57 57 54 55 45
60 63 64 64 70 73 65 57 59 65 67 68 68 66 68 72 74 69 56 52 51 51 51 55 58 58 56 55 59 59 59 56 50 47 48 52 54 52 50 49 42 36 34
65 67 70 74 67 57 56 59 63 63 64 68 71 66 68 68 65 59 53 44 45 47 47 49 51 51 50 50 53 56 51 47 45 46 48 50 49 44 43 37 34 32 31
71 83 68 63 63 60 62 62 63 66 70 71 70 61 53 49 48 42 42 39 41 45 47 48 46 46 45 50 48 46 44 43 40 41 39 42 43 40 35 32 31 31 29
56 62 68 67 64 67 68 72 69 64 69 68 54 47 44 43 38 37 39 40 42 42 39 39 38 41 45 43 40 36 35 37 39 42 43 42 38 32 30 29 28 28 27
63 66 61 64 67 67 67 68 62 61 55 48 42 44 42 35 35 39 41 39 36 37 39 41 42 45 40 35 34 36 37 38 37 35 27 24 26 27 26 26 25 26 28
66 65 66 70 71 66 59 54 54 51 44 40 36 36 34 36 38 39 35 33 37 40 41 43 41 40 34 31 30 31 30 27 22 21 22 23 23 23 23 25 26 28 28
72 69 61 62 57 54 56 56 55 58 46 38 35 38 39 41 38 32 34 36 41 41 41 40 39 33 27 26 25 23 17 17 21 21 22 22 21 20 23 25 26 26 27
71 71 73 68 66 65 59 59 64 65 56 44 51 47 45 44 39 37 40 40 41 41 40 35 34 29 26 25 24 22 23 20 21 21 20 19 17 21 24 25 25 25 25
81 85 87 74 79 86 82 75 56 53 58 67 69 66 62 48 42 40 40 42 44 37 33 33 32 29 26 24 22 18 16 18 19 19 19 15 17 20 22 24 23 23 24
84 87 88 86 79 83 78 65 67 78 74 75 67 59 56 52 46 43 46 48 43 34 32 32 31 30 25 22 19 17 14 15 17 17 14 13 17 19 20 21 23 23 24
88 95 97 79 70 69 54 49 67 72 78 69 56 50 50 48 47 46 50 45 39 34 30 31 30 29 27 25 19 15 14 16 16 15 15 14 15 19 19 19 21 23 24
65 63 62 55 57 60 61 57 61 68 62 56 51 48 45 44 55 52 40 44 39 31 29 31 31 31 30 28 26 20 14 14 14 13 13 13 18 19 18 18 19 22 23